Back to catalog

METEOR 2-11 DEB

LostPO
NORAD 42452·DEBRIS·🇷🇺 Russia

Launched Jul 5, 1984 from Plesetsk Cosmodrome

Loading…

Next Passes (next 24 hours)

TLE

StaleSource: Space-Track

Epoch: Jun 29, 2018, 07:28 UTC

1 42452U 84072N   18180.31163210 +.00000878 +00000-0 +74172-3 0  9990
2 42452 082.5496 197.9346 0021235 005.9201 181.1941 13.86626268126992

Track METEOR 2-11 DEB in real time with AllMySat

Download on the App Store